Wind_Speed
44 45 46 44 44 42 41 41 42 41 39 37 38 39 39 38 37 36 34 32 31 30 28 27 26 25 24 23 23 23 23 23 23 22 23 23 23 24
42 43 46 46 45 44 44 42 43 42 40 39 38 39 39 39 38 37 35 34 34 32 30 29 28 27 26 25 25 24 24 24 24 24 23 23 23 23
40 41 43 45 46 45 45 43 42 42 43 42 40 38 39 39 39 38 36 35 35 34 32 31 29 28 28 27 26 26 26 25 25 24 23 24 24 24
37 40 42 43 44 45 45 45 44 43 43 43 42 40 38 39 40 39 38 37 36 35 34 32 31 30 30 30 29 28 27 26 26 25 24 24 23 23
34 37 39 42 42 43 44 45 45 43 43 43 43 42 41 40 40 39 38 37 36 35 35 34 33 32 32 31 30 29 28 27 26 25 24 24 23 23
30 33 36 39 40 42 44 45 46 45 44 44 44 44 42 41 41 40 39 38 37 37 36 35 35 35 35 34 32 30 29 28 26 25 24 24 23 22
27 30 33 36 38 41 42 44 45 46 44 44 44 44 43 42 41 40 40 40 39 38 38 38 38 37 36 35 33 31 29 28 26 25 24 23 22 22
24 27 30 32 35 37 40 42 43 44 45 44 43 43 43 43 42 40 40 41 40 39 39 39 38 36 35 35 33 31 30 29 27 25 24 23 22 22
20 24 27 29 32 34 36 39 41 42 42 41 41 41 41 41 43 43 41 41 40 39 39 38 37 36 34 34 33 31 29 27 26 25 23 23 22 20
16 20 23 26 28 31 34 35 37 39 39 39 39 39 40 40 41 42 41 40 39 39 38 37 36 35 34 33 31 28 27 25 24 23 23 23 21 20
13 16 19 22 25 28 31 34 35 36 37 38 38 38 40 39 38 37 37 37 37 37 36 35 35 34 33 31 28 27 26 25 24 23 22 21 20 19
10 13 15 19 22 24 28 31 32 33 34 35 36 35 36 37 36 35 34 35 34 35 35 34 33 32 29 28 27 26 25 23 23 22 21 20 20 19
8 10 12 15 18 19 23 26 29 30 32 33 33 34 34 34 34 34 33 33 34 34 32 32 31 29 28 27 26 25 24 23 22 22 22 21 19 18
6 7 9 11 14 16 18 22 25 26 29 31 32 32 32 32 32 32 31 31 32 32 31 30 28 27 27 27 26 25 23 22 22 22 21 20 18 17
5 4 6 8 10 12 14 17 21 23 25 26 27 28 29 30 30 30 30 29 29 29 29 28 27 27 26 25 24 23 23 22 22 21 19 18 18 16
6 4 4 6 8 10 12 15 17 20 23 24 26 27 27 28 29 29 29 29 30 29 28 27 26 25 25 24 23 23 22 22 21 20 19 18 17 17
7 5 3 3 6 9 11 12 14 16 18 20 23 25 27 27 28 29 29 28 28 27 27 27 27 25 24 23 22 21 21 20 20 19 19 18 18 17
7 5 3 3 3 6 9 11 12 14 16 18 20 22 24 25 26 26 26 26 26 25 25 25 25 24 23 23 22 21 21 21 20 19 19 18 18 17
7 5 5 4 3 5 8 10 11 13 14 16 18 21 22 23 24 24 24 25 25 25 24 24 23 23 23 22 21 21 21 20 20 19 19 19 18 17
8 6 5 4 4 5 7 10 11 13 14 15 16 18 20 21 22 23 23 23 23 23 23 23 22 22 22 22 21 21 20 19 19 19 19 18 18 17
9 8 7 6 5 6 7 9 10 12 13 15 16 18 19 20 20 21 22 22 22 22 22 22 22 21 21 21 20 20 19 19 18 18 18 18 18 18
11 10 9 9 8 8 9 10 11 12 13 14 16 17 19 20 19 20 21 21 21 22 22 22 22 21 21 20 20 19 19 19 18 18 18 18 18 18
15 13 12 12 12 11 11 11 12 13 13 14 15 16 18 19 20 20 20 20 20 21 21 21 21 21 21 20 20 20 19 19 18 18 18 18 18 18
Wind_Direction
236 236 234 234 233 234 232 231 231 231 232 234 234 233 233 233 233 235 237 239 241 244 247 249 252 254 257 259 263 267 270 275 279 283 285 288 290 293
236 235 235 234 234 234 233 232 232 232 231 232 233 232 232 232 233 236 238 240 241 242 246 248 251 253 255 259 262 266 271 274 278 280 283 286 289 292
236 235 234 234 235 235 234 233 231 232 231 230 233 234 234 233 233 235 237 239 240 242 244 248 250 253 256 259 262 267 271 272 275 277 281 284 287 291
235 234 234 234 234 234 234 234 232 232 231 230 232 234 236 236 235 236 236 238 239 240 243 247 251 253 255 258 262 266 269 271 274 276 279 282 285 288
236 235 234 234 234 234 234 234 234 233 232 231 232 235 237 238 236 235 237 238 239 240 243 246 250 253 256 259 262 264 266 269 271 274 277 280 283 285
238 236 234 234 234 234 234 234 234 234 234 232 232 234 236 237 236 236 238 239 240 242 245 247 250 252 255 258 260 261 263 266 268 271 275 278 279 282
239 237 235 234 233 233 234 234 234 235 236 235 234 234 235 236 236 237 238 240 241 244 246 247 250 252 254 257 258 260 261 263 265 268 272 275 277 281
241 239 237 236 234 233 233 232 233 235 236 237 237 235 235 236 236 236 238 239 241 243 244 247 251 252 253 255 255 258 260 261 262 265 269 271 274 278
243 239 237 236 235 234 233 232 233 234 235 237 238 235 235 234 235 236 237 238 240 241 244 247 248 249 251 254 255 256 257 257 258 261 264 267 271 274
246 242 239 235 233 233 232 232 232 233 234 234 235 235 235 235 235 236 236 237 239 239 243 245 245 247 250 252 253 253 253 255 258 259 260 263 265 268
253 247 241 235 233 233 232 232 231 231 231 231 232 234 234 234 234 234 234 237 239 240 240 242 243 246 248 248 248 248 249 251 254 256 257 258 261 263
261 251 244 237 233 234 231 229 230 230 230 230 230 230 232 233 233 234 236 238 238 238 238 240 240 242 241 242 243 244 246 248 251 252 251 254 257 259
269 254 245 238 235 234 229 226 226 227 227 228 229 230 230 231 233 234 235 234 234 236 237 237 236 235 236 238 238 240 242 245 248 248 251 252 253 255
282 258 248 240 235 233 227 224 223 224 224 224 226 229 229 230 228 228 228 229 230 232 233 231 231 231 232 234 236 239 240 243 245 246 247 248 249 251
318 277 252 241 236 229 224 221 220 221 222 222 224 224 223 224 224 224 223 225 226 227 227 227 228 230 231 233 235 235 236 237 238 239 240 242 244 246
341 312 273 252 234 226 222 221 219 218 219 220 220 218 219 220 219 218 219 222 223 222 222 224 224 226 229 232 233 233 232 232 232 235 237 239 243 246
357 340 299 251 229 221 215 214 215 214 213 213 214 216 217 216 215 215 215 216 216 218 220 221 223 224 225 226 226 226 227 229 232 235 237 240 243 245
356 350 325 274 238 215 212 211 210 210 210 208 209 210 210 210 211 213 212 213 215 216 217 218 219 221 222 223 224 226 227 229 231 234 237 239 242 245
338 328 320 302 260 226 214 208 207 209 209 207 207 206 206 208 209 209 211 213 214 214 215 216 218 219 221 222 224 225 228 230 231 235 238 240 242 243
324 316 307 289 263 234 223 217 211 209 210 208 207 207 207 207 210 211 212 212 210 211 212 214 215 217 220 221 224 225 227 229 231 235 238 240 240 242
308 300 290 280 258 238 228 222 217 213 214 213 212 210 208 209 210 209 208 208 209 209 209 212 215 218 220 220 222 224 227 229 232 235 237 238 241 246
290 284 273 264 257 244 235 230 228 223 220 216 212 209 208 207 207 208 207 207 209 210 212 214 217 218 219 220 222 224 226 229 232 235 237 240 244 250
276 273 266 258 251 243 238 233 230 225 220 215 210 208 207 209 209 210 210 210 212 213 215 216 217 218 219 221 222 223 226 229 233 236 239 243 248 253
Height
5777 5782 5787 5792 5797 5801 5806 5811 5816 5820 5825 5829 5832 5836 5840 5845 5849 5852 5856 5859 5861 5864 5866 5868 5869 5870 5871 5872 5872 5872 5872 5872 5871 5870 5869 5867 5866 5864
5767 5772 5777 5782 5787 5792 5797 5802 5807 5812 5816 5820 5824 5828 5832 5837 5841 5844 5848 5852 5854 5857 5859 5861 5863 5864 5865 5866 5866 5866 5866 5866 5865 5864 5863 5862 5860 5858
5758 5763 5767 5772 5777 5782 5787 5792 5797 5802 5807 5812 5815 5819 5824 5828 5833 5836 5840 5844 5847 5850 5852 5854 5856 5857 5859 5860 5860 5860 5860 5860 5859 5858 5857 5856 5855 5853
5749 5754 5758 5763 5768 5773 5778 5783 5788 5793 5798 5803 5807 5811 5816 5820 5825 5829 5832 5836 5839 5842 5844 5847 5849 5850 5851 5852 5853 5853 5854 5854 5853 5852 5852 5851 5849 5848
5741 5745 5749 5754 5759 5764 5769 5774 5779 5783 5788 5793 5798 5803 5807 5811 5816 5820 5824 5828 5831 5834 5836 5839 5841 5843 5844 5845 5846 5846 5847 5847 5847 5846 5845 5844 5843 5842
5734 5737 5741 5745 5750 5754 5759 5764 5769 5774 5779 5784 5789 5794 5798 5802 5807 5811 5816 5819 5823 5826 5828 5831 5833 5834 5836 5837 5838 5839 5839 5840 5840 5839 5839 5838 5837 5836
5727 5730 5733 5737 5741 5745 5750 5755 5760 5765 5769 5774 5779 5784 5789 5793 5798 5803 5807 5810 5814 5817 5820 5822 5824 5826 5828 5829 5830 5831 5832 5832 5833 5833 5833 5832 5831 5830
5720 5723 5725 5729 5733 5737 5741 5746 5751 5756 5761 5766 5770 5775 5781 5785 5789 5793 5798 5802 5805 5809 5811 5813 5816 5818 5820 5821 5822 5823 5824 5825 5826 5826 5826 5826 5825 5824
5714 5716 5719 5722 5725 5729 5733 5737 5742 5747 5752 5757 5762 5766 5771 5775 5780 5784 5788 5792 5796 5799 5802 5804 5806 5809 5812 5813 5814 5816 5817 5818 5819 5819 5820 5820 5819 5819
5709 5711 5712 5715 5718 5722 5725 5730 5734 5738 5744 5749 5754 5758 5762 5766 5770 5774 5778 5782 5786 5789 5793 5795 5798 5801 5804 5806 5807 5809 5810 5811 5812 5813 5813 5814 5813 5813
5705 5706 5707 5709 5712 5715 5718 5722 5726 5730 5735 5740 5745 5749 5753 5758 5762 5766 5770 5773 5777 5781 5784 5787 5790 5793 5796 5798 5800 5802 5803 5805 5806 5806 5807 5807 5807 5807
5701 5702 5702 5704 5706 5709 5711 5715 5719 5723 5728 5732 5737 5741 5745 5749 5754 5757 5761 5766 5769 5773 5776 5780 5782 5785 5788 5791 5793 5795 5797 5798 5799 5800 5801 5802 5802 5802
5699 5699 5699 5700 5702 5704 5706 5709 5713 5717 5721 5725 5729 5733 5737 5742 5746 5750 5754 5758 5762 5766 5769 5772 5775 5778 5781 5784 5786 5788 5790 5792 5793 5794 5795 5796 5796 5797
5698 5697 5697 5697 5698 5699 5701 5704 5707 5711 5714 5718 5723 5727 5731 5735 5739 5743 5746 5750 5754 5758 5762 5765 5768 5771 5774 5777 5779 5781 5783 5785 5787 5788 5789 5790 5791 5792
5697 5696 5696 5696 5696 5697 5698 5700 5703 5706 5709 5713 5716 5721 5724 5728 5732 5736 5740 5744 5747 5751 5755 5758 5762 5765 5768 5771 5773 5775 5777 5779 5781 5782 5784 5785 5786 5787
5698 5697 5696 5695 5695 5696 5697 5698 5700 5702 5705 5708 5712 5715 5718 5722 5726 5730 5734 5738 5742 5745 5749 5752 5756 5759 5762 5765 5767 5769 5772 5774 5776 5777 5779 5780 5781 5782
5700 5698 5696 5695 5695 5695 5695 5696 5698 5699 5701 5704 5707 5710 5714 5717 5721 5725 5729 5733 5737 5740 5744 5747 5750 5753 5756 5759 5761 5764 5766 5769 5770 5772 5774 5775 5776 5777
5701 5699 5697 5696 5695 5695 5695 5696 5697 5698 5700 5702 5705 5708 5711 5714 5717 5721 5724 5728 5732 5735 5739 5742 5745 5748 5751 5754 5757 5759 5761 5763 5765 5767 5769 5770 5771 5772
5702 5700 5698 5697 5696 5696 5695 5695 5696 5697 5699 5700 5702 5705 5708 5711 5714 5717 5720 5724 5727 5731 5734 5737 5740 5743 5746 5749 5752 5754 5756 5758 5760 5762 5764 5765 5766 5767
5702 5700 5699 5697 5696 5696 5696 5696 5696 5697 5698 5699 5701 5703 5705 5708 5711 5714 5717 5720 5723 5726 5730 5733 5736 5739 5742 5745 5747 5749 5751 5754 5755 5757 5759 5760 5761 5762
5701 5700 5698 5697 5696 5696 5695 5695 5696 5696 5697 5698 5699 5701 5703 5706 5708 5711 5714 5717 5720 5723 5726 5729 5732 5735 5737 5740 5742 5744 5747 5749 5750 5752 5754 5755 5756 5757
5700 5698 5697 5696 5695 5695 5694 5694 5695 5695 5695 5696 5697 5699 5701 5703 5706 5708 5711 5714 5717 5719 5722 5725 5728 5730 5733 5735 5738 5740 5742 5744 5745 5747 5749 5750 5751 5752
5696 5695 5694 5693 5693 5692 5692 5692 5693 5693 5693 5694 5695 5697 5699 5701 5703 5706 5708 5711 5713 5716 5718 5721 5723 5726 5728 5731 5733 5735 5737 5739 5741 5742 5744 5745 5746 5747